Preview of NWS' New Version of Forecast
This preview is not operational and should not be used for support decisions.

Regional Weather Roundup (RWR)

Issued by Gray - Portland, ME (GYX)

                            
000
ASUS41 KGYX 242310
RWRGYX
WEATHER ROUNDUP FOR MAINE AND NEW HAMPSHIRE
NATIONAL WEATHER SERVICE GRAY ME
700 PM EDT MON JUN 24 2019

MEZ002-005-006-010-012-015-018-020-021-024-026-027-029-250000-
MAINE
  
CITY           SKY/WX    TMP DP  RH WIND       PRES   REMARKS
PORTLAND       FAIR      65  50  58 S5        29.85S                  
SANFORD        FAIR      70  47  43 VRB6      29.86R                  
BAR HARBOR     FAIR      63  45  51 SW12      29.85R                  
WISCASSET      FAIR      63  45  51 S5        29.87R                  
ROCKLAND       FAIR      62  44  51 SW8       29.86S                  
FRYEBURG       FAIR      79  45  29 NE5       29.83R                  
LEWISTONAUBURN FAIR      70  50  49 SE9       29.84R                  
AUGUSTA        FAIR      70  47  43 S8        29.85R                  
WATERVILLE     FAIR      73  51  46 VRB5      29.81R                  
BANGOR         FAIR      76  41  28 N7        29.83R                  
GREENVILLE       N/A     69  37  30 N5        29.85R                  
MILLINOCKET    FAIR      75  36  24 NW7       29.84R                  
HOULTON        FAIR      69  41  36 N9        29.82R                  
PRESQUE ISLE   FAIR      69  40  34 NW10      29.85R                  
FRENCHVILLE    FAIR      69  34  27 N9        29.85R                  
CARIBOU        FAIR      69  39  33 NW9       29.83R                  
$$

NHZ002-005-008-009-011-012-014-250000-
NEW HAMPSHIRE
  
CITY           SKY/WX    TMP DP  RH WIND       PRES   REMARKS
PORTSMOUTH     PTSUNNY   67  51  56 SE12      29.84R                  
ROCHESTER      FAIR      71  46  40 SE7       29.85R                  
NASHUA         FAIR      83  53  35 N5        29.82R                  
MANCHESTER     PTSUNNY   82  51  34 SE9       29.81R                  
CONCORD        FAIR      81  47  30 CALM      29.82R                  
LACONIA        FAIR      79  48  33 W3        29.84R                  
PLYMOUTH       FAIR      77  48  36 NW3       29.82S                  
BERLIN         FAIR      77  41  27 VRB3      29.86R                  
WHITEFIELD     FAIR      76  41  28 N6        29.85S                  
JAFFREY        FAIR      76  53  44 CALM      29.86S                  
KEENE          FAIR      75  63  66 CALM      29.83S                  
LEBANON        FAIR      75  59  57 CALM      29.83R                  
MT WASHINGTON  PTSUNNY   52  32  46 NW23        N/A                   
$$

VTZ005-007-008-250000-
VERMONT
  
CITY           SKY/WX    TMP DP  RH WIND       PRES   REMARKS
ST JOHNSBURY     N/A     77  41  27 MISG      29.82S                  
MONTPELIER     FAIR      73  47  39 NW3       29.89S                  
BURLINGTON     PTSUNNY   76  47  35 N3        29.83S                  
$$

MAZ007-012-024-CTZ003-RIZ002-NYZ038-NYZ072-250000-
SOUTHERN NEW ENGLAND AND NY
  
CITY           SKY/WX    TMP DP  RH WIND       PRES   REMARKS
BOSTON         PTSUNNY   67  57  70 E14       29.84R                  
WORCESTER      FAIR      76  57  51 W6        29.86S                  
NANTUCKET      FAIR      66  60  81 SE6       29.87R                  
PROVIDENCE     PTSUNNY   80  58  46 SW13      29.83R                  
HARTFORD       PTSUNNY   82  54  37 W6        29.82S                  
ALBANY         PTSUNNY   81  52  36 S8        29.81F                  
NEW YORK CITY  PTSUNNY   80  60  50 S10       29.82S                  
$$

ANZ081-ANZ082-ANZ150-NHZ014-MEZ023>029-250000-
COASTAL MARINE OBSERVATIONS
  
STATION/POSITION TIME  TEMP    WIND        PRES    WAVE
                       AIR SEA DIR/SP/G            HT/PER
                 (UTC) (F)     (DEG/KT/KT) (MB)    (FT/S)
ISLE OF SHOALS   2200   61     140/ 11/ 11 1010.1R
JEFFREYS LEDGE   2238      59                N/A     1/ 3
CASHES LEDGE BUO 2250   58 56  170/ 10/ 12 1011.4R   1/ 9
GEORGES BANK BUO 2250   57 54  330/  4/  6 1012.4R   3/ 6
$$

.............KEY..............
   WCI - WIND CHILL
   TC  - TEMPERATURE IN CELSIUS
   VSB - VISIBILITY IN MILES
   HX  - HEAT INDEX
   FAIR- INDICATES FEW OR NO CLOUDS BELOW 12,000 FT, WITH NO 
         SIGNIFICANT WEATHER AND/OR OBSTRUCTIONS TO VISIBILITY.